Time,TemperatureF,DewpointF,PressureIn,WindDirection,WindDirectionDegrees,WindSpeedMPH,WindSpeedGustMPH,Humidity,HourlyPrecipIn,Conditions,Clouds,dailyrainin,SoftwareType,DateUTC
2013-05-26 00:01:00,57.2,48.6,29.99,North,-999,-999.0,0.0,73,0.00,,---,0.00,VWS V14.01,2013-05-26 04:01:00,
2013-05-26 00:02:00,57.2,49.0,29.99,North,-999,-999.0,0.0,74,0.00,,---,0.00,VWS V14.01,2013-05-26 04:02:00,
2013-05-26 00:04:00,57.2,49.0,29.99,North,-999,-999.0,0.0,74,0.00,,---,0.00,VWS V14.01,2013-05-26 04:04:00,
2013-05-26 00:10:00,57.1,48.9,30.00,North,-999,-999.0,0.0,74,0.00,,---,0.00,VWS V14.01,2013-05-26 04:10:00,
2013-05-26 00:12:00,56.9,48.7,30.00,North,-999,-999.0,0.0,74,0.00,,---,0.00,VWS V14.01,2013-05-26 04:12:00,
2013-05-26 00:17:00,56.7,48.9,30.00,North,-999,-999.0,0.0,75,0.00,,---,0.00,VWS V14.01,2013-05-26 04:17:00,
2013-05-26 00:22:00,56.5,48.7,30.00,North,-999,-999.0,0.0,75,0.00,,---,0.00,VWS V14.01,2013-05-26 04:22:00,
2013-05-26 00:27:00,56.5,48.7,30.00,North,-999,-999.0,0.0,75,0.00,,---,0.00,VWS V14.01,2013-05-26 04:27:00,
2013-05-26 00:32:00,56.5,49.0,30.00,North,-999,-999.0,0.0,76,0.00,,---,0.00,VWS V14.01,2013-05-26 04:32:00,
2013-05-26 00:37:00,56.3,48.8,30.00,North,-999,-999.0,0.0,76,0.00,,---,0.00,VWS V14.01,2013-05-26 04:37:00,
2013-05-26 00:42:00,56.2,48.8,30.00,North,-999,-999.0,0.0,76,0.00,,---,0.00,VWS V14.01,2013-05-26 04:42:00,
2013-05-26 00:47:00,56.0,48.5,30.00,North,-999,-999.0,0.0,76,0.00,,---,0.00,VWS V14.01,2013-05-26 04:47:00,
2013-05-26 00:52:00,55.8,48.7,30.00,North,-999,-999.0,0.0,77,0.00,,---,0.00,VWS V14.01,2013-05-26 04:52:00,
2013-05-26 00:57:00,55.6,48.5,30.00,North,-999,-999.0,0.0,77,0.00,,---,0.00,VWS V14.01,2013-05-26 04:57:00,
2013-05-26 01:02:00,55.4,48.3,30.00,North,-999,-999.0,0.0,77,0.00,,---,0.00,VWS V14.01,2013-05-26 05:02:00,
2013-05-26 01:08:00,55.4,48.3,30.00,North,-999,-999.0,0.0,77,0.00,,---,0.00,VWS V14.01,2013-05-26 05:08:00,
2013-05-26 01:13:00,55.4,48.3,30.00,North,-999,-999.0,0.0,77,0.00,,---,0.00,VWS V14.01,2013-05-26 05:13:00,
2013-05-26 01:18:00,55.3,48.2,30.00,North,-999,-999.0,0.0,77,0.00,,---,0.00,VWS V14.01,2013-05-26 05:18:00,
2013-05-26 01:23:00,55.1,48.4,30.00,North,-999,-999.0,0.0,78,0.00,,---,0.00,VWS V14.01,2013-05-26 05:23:00,
2013-05-26 01:28:00,55.1,48.7,30.00,North,-999,-999.0,0.0,79,0.00,,---,0.00,VWS V14.01,2013-05-26 05:28:00,
2013-05-26 01:33:00,55.1,48.7,30.00,North,-999,-999.0,0.0,79,0.00,,---,0.00,VWS V14.01,2013-05-26 05:33:00,
2013-05-26 01:38:00,55.1,48.4,30.00,North,-999,-999.0,0.0,78,0.00,,---,0.00,VWS V14.01,2013-05-26 05:38:00,
2013-05-26 01:43:00,55.3,48.6,30.00,North,-999,-999.0,0.0,78,0.00,,---,0.00,VWS V14.01,2013-05-26 05:43:00,
2013-05-26 01:48:00,55.3,48.6,30.00,North,-999,-999.0,0.0,78,0.00,,---,0.00,VWS V14.01,2013-05-26 05:48:00,
2013-05-26 01:53:00,55.1,48.4,29.99,North,-999,-999.0,0.0,78,0.00,,---,0.00,VWS V14.01,2013-05-26 05:53:00,
2013-05-26 01:58:00,55.1,48.7,29.99,North,-999,-999.0,0.0,79,0.00,,---,0.00,VWS V14.01,2013-05-26 05:58:00,
2013-05-26 02:04:00,54.9,48.5,29.99,North,-999,-999.0,0.0,79,0.00,,---,0.00,VWS V14.01,2013-05-26 06:04:00,
2013-05-26 02:09:00,54.7,48.3,29.99,North,-999,-999.0,0.0,79,0.00,,---,0.00,VWS V14.01,2013-05-26 06:09:00,
2013-05-26 02:14:00,54.5,48.1,29.99,North,-999,-999.0,0.0,79,0.00,,---,0.00,VWS V14.01,2013-05-26 06:14:00,
2013-05-26 02:19:00,54.4,48.0,29.99,North,-999,-999.0,0.0,79,0.00,,---,0.00,VWS V14.01,2013-05-26 06:19:00,
2013-05-26 02:24:00,54.2,47.8,29.99,North,-999,-999.0,0.0,79,0.00,,---,0.00,VWS V14.01,2013-05-26 06:24:00,
2013-05-26 02:29:00,54.2,48.2,29.99,North,-999,-999.0,0.0,80,0.00,,---,0.00,VWS V14.01,2013-05-26 06:29:00,
2013-05-26 02:34:00,54.0,48.0,30.00,North,-999,-999.0,0.0,80,0.00,,---,0.00,VWS V14.01,2013-05-26 06:34:00,
2013-05-26 02:39:00,53.8,47.8,30.00,North,-999,-999.0,0.0,80,0.00,,---,0.00,VWS V14.01,2013-05-26 06:39:00,
2013-05-26 02:44:00,53.8,48.1,29.99,North,-999,-999.0,0.0,81,0.00,,---,0.00,VWS V14.01,2013-05-26 06:44:00,
2013-05-26 02:49:00,53.8,47.8,29.99,North,-999,-999.0,0.0,80,0.00,,---,0.00,VWS V14.01,2013-05-26 06:49:00,
2013-05-26 02:54:00,53.8,48.1,29.99,North,-999,-999.0,0.0,81,0.00,,---,0.00,VWS V14.01,2013-05-26 06:54:00,
2013-05-26 02:59:00,53.6,47.9,29.99,North,-999,-999.0,0.0,81,0.00,,---,0.00,VWS V14.01,2013-05-26 06:59:00,
2013-05-26 03:04:00,53.6,47.9,29.99,North,-999,-999.0,0.0,81,0.00,,---,0.00,VWS V14.01,2013-05-26 07:04:00,
2013-05-26 03:10:00,53.5,47.8,29.99,North,-999,-999.0,0.0,81,0.00,,---,0.00,VWS V14.01,2013-05-26 07:10:00,
2013-05-26 03:11:00,53.5,47.8,29.99,North,-999,-999.0,0.0,81,0.00,,---,0.00,VWS V14.01,2013-05-26 07:11:00,
2013-05-26 03:16:00,53.5,47.8,29.99,North,-999,-999.0,0.0,81,0.00,,---,0.00,VWS V14.01,2013-05-26 07:16:00,
2013-05-26 04:00:00,52.7,47.4,29.99,North,-999,-999.0,0.0,82,0.00,,---,0.00,VWS V14.01,2013-05-26 08:00:00,
2013-05-26 04:06:00,52.7,47.4,29.99,North,-999,-999.0,0.0,82,0.00,,---,0.00,VWS V14.01,2013-05-26 08:06:00,
2013-05-26 11:00:00,66.8,49.1,30.11,North,-999,-999.0,0.0,53,0.00,,---,0.00,VWS V14.01,2013-05-26 15:00:00,
2013-05-26 11:05:00,66.6,49.0,30.11,North,-999,-999.0,0.0,53,0.00,,---,0.00,VWS V14.01,2013-05-26 15:05:00,
2013-05-26 11:11:00,66.6,49.5,30.11,North,-999,-999.0,0.0,54,0.00,,---,0.00,VWS V14.01,2013-05-26 15:11:00,
2013-05-26 11:16:00,66.6,49.5,30.11,North,-999,-999.0,0.0,54,0.00,,---,0.00,VWS V14.01,2013-05-26 15:16:00,
2013-05-26 11:21:00,67.0,49.8,30.11,North,-999,-999.0,0.0,54,0.00,,---,0.00,VWS V14.01,2013-05-26 15:21:00,
2013-05-26 11:26:00,67.3,49.1,30.11,North,-999,-999.0,0.0,52,0.00,,---,0.00,VWS V14.01,2013-05-26 15:26:00,
2013-05-26 11:31:00,67.7,49.5,30.11,North,-999,-999.0,0.0,52,0.00,,---,0.00,VWS V14.01,2013-05-26 15:31:00,
2013-05-26 11:36:00,68.9,51.1,30.11,North,-999,-999.0,0.0,53,0.00,,---,0.00,VWS V14.01,2013-05-26 15:36:00,
2013-05-26 11:41:00,71.5,52.4,30.10,North,-999,-999.0,0.0,51,0.00,,---,0.00,VWS V14.01,2013-05-26 15:41:00,
2013-05-26 11:46:00,73.8,52.3,30.10,North,-999,-999.0,0.0,47,0.00,,---,0.00,VWS V14.01,2013-05-26 15:46:00,
2013-05-26 11:51:00,74.0,52.5,30.10,North,-999,-999.0,0.0,47,0.00,,---,0.00,VWS V14.01,2013-05-26 15:51:00,
2013-05-26 11:56:00,74.9,52.8,30.10,North,-999,-999.0,0.0,46,0.00,,---,0.00,VWS V14.01,2013-05-26 15:56:00,
2013-05-26 12:02:00,74.5,52.4,30.09,North,-999,-999.0,0.0,46,0.00,,---,0.00,VWS V14.01,2013-05-26 16:02:00,
2013-05-26 12:07:00,73.4,50.8,30.10,North,-999,-999.0,0.0,45,0.00,,---,0.00,VWS V14.01,2013-05-26 16:07:00,
2013-05-26 12:12:00,74.7,52.6,30.09,North,-999,-999.0,0.0,46,0.00,,---,0.00,VWS V14.01,2013-05-26 16:12:00,
2013-05-26 12:17:00,76.7,53.8,30.10,North,-999,-999.0,0.0,45,0.00,,---,0.00,VWS V14.01,2013-05-26 16:17:00,
2013-05-26 12:22:00,77.0,52.8,30.10,North,-999,-999.0,0.0,43,0.00,,---,0.00,VWS V14.01,2013-05-26 16:22:00,
2013-05-26 12:27:00,76.5,51.1,30.10,North,-999,-999.0,0.0,41,0.00,,---,0.00,VWS V14.01,2013-05-26 16:27:00,
2013-05-26 12:32:00,76.1,51.4,30.10,North,-999,-999.0,0.0,42,0.00,,---,0.00,VWS V14.01,2013-05-26 16:32:00,
2013-05-26 12:37:00,75.4,49.4,30.10,North,-999,-999.0,0.0,40,0.00,,---,0.00,VWS V14.01,2013-05-26 16:37:00,
2013-05-26 12:42:00,75.6,50.9,30.10,North,-999,-999.0,0.0,42,0.00,,---,0.00,VWS V14.01,2013-05-26 16:42:00,
2013-05-26 12:47:00,74.5,49.9,30.09,North,-999,-999.0,0.0,42,0.00,,---,0.00,VWS V14.01,2013-05-26 16:47:00,
2013-05-26 12:52:00,73.8,49.9,30.09,North,-999,-999.0,0.0,43,0.00,,---,0.00,VWS V14.01,2013-05-26 16:52:00,
2013-05-26 12:57:00,73.6,49.1,30.09,North,-999,-999.0,0.0,42,0.00,,---,0.00,VWS V14.01,2013-05-26 16:57:00,
2013-05-26 13:03:00,72.7,48.3,30.09,North,-999,-999.0,0.0,42,0.00,,---,0.00,VWS V14.01,2013-05-26 17:03:00,
2013-05-26 13:08:00,73.3,49.5,30.09,North,-999,-999.0,0.0,43,0.00,,---,0.00,VWS V14.01,2013-05-26 17:08:00,
2013-05-26 13:13:00,74.9,50.3,30.08,North,-999,-999.0,0.0,42,0.00,,---,0.00,VWS V14.01,2013-05-26 17:13:00,
2013-05-26 13:18:00,76.5,51.1,30.07,North,-999,-999.0,0.0,41,0.00,,---,0.00,VWS V14.01,2013-05-26 17:18:00,
2013-05-26 13:23:00,78.1,52.5,30.08,North,-999,-999.0,0.0,41,0.00,,---,0.00,VWS V14.01,2013-05-26 17:23:00,
2013-05-26 13:28:00,80.3,53.8,30.07,North,-999,-999.0,0.0,40,0.00,,---,0.00,VWS V14.01,2013-05-26 17:28:00,
2013-05-26 13:33:00,80.3,52.4,30.07,North,-999,-999.0,0.0,38,0.00,,---,0.00,VWS V14.01,2013-05-26 17:33:00,
2013-05-26 13:38:00,80.3,53.1,30.07,North,-999,-999.0,0.0,39,0.00,,---,0.00,VWS V14.01,2013-05-26 17:38:00,
2013-05-26 13:43:00,79.4,48.6,30.07,North,-999,-999.0,0.0,34,0.00,,---,0.00,VWS V14.01,2013-05-26 17:43:00,
2013-05-26 13:48:00,79.2,49.2,30.07,North,-999,-999.0,0.0,35,0.00,,---,0.00,VWS V14.01,2013-05-26 17:48:00,
2013-05-26 13:54:00,80.8,52.8,30.07,North,-999,-999.0,0.0,38,0.00,,---,0.00,VWS V14.01,2013-05-26 17:54:00,
2013-05-26 13:59:00,81.5,51.2,30.07,North,-999,-999.0,0.0,35,0.00,,---,0.00,VWS V14.01,2013-05-26 17:59:00,
2013-05-26 14:04:00,81.4,49.6,30.07,North,-999,-999.0,0.0,33,0.00,,---,0.00,VWS V14.01,2013-05-26 18:04:00,
2013-05-26 14:10:00,79.6,47.2,30.06,North,-999,-999.0,0.0,32,0.00,,---,0.00,VWS V14.01,2013-05-26 18:10:00,
2013-05-26 14:15:00,78.5,48.6,30.06,North,-999,-999.0,0.0,35,0.00,,---,0.00,VWS V14.01,2013-05-26 18:15:00,
2013-05-26 14:20:00,78.8,48.9,30.06,North,-999,-999.0,0.0,35,0.00,,---,0.00,VWS V14.01,2013-05-26 18:20:00,
2013-05-26 14:25:00,79.0,47.5,30.05,North,-999,-999.0,0.0,33,0.00,,---,0.00,VWS V14.01,2013-05-26 18:25:00,
2013-05-26 14:30:00,79.0,46.7,30.05,North,-999,-999.0,0.0,32,0.00,,---,0.00,VWS V14.01,2013-05-26 18:30:00,
2013-05-26 14:35:00,78.8,48.1,30.05,North,-999,-999.0,0.0,34,0.00,,---,0.00,VWS V14.01,2013-05-26 18:35:00,
2013-05-26 14:40:00,79.2,46.0,30.05,North,-999,-999.0,0.0,31,0.00,,---,0.00,VWS V14.01,2013-05-26 18:40:00,
2013-05-26 14:45:00,79.4,48.6,30.04,North,-999,-999.0,0.0,34,0.00,,---,0.00,VWS V14.01,2013-05-26 18:45:00,
2013-05-26 14:50:00,81.0,49.2,30.04,North,-999,-999.0,0.0,33,0.00,,---,0.00,VWS V14.01,2013-05-26 18:50:00,
2013-05-26 14:55:00,82.4,50.4,30.04,North,-999,-999.0,0.0,33,0.00,,---,0.00,VWS V14.01,2013-05-26 18:55:00,
2013-05-26 15:00:00,83.3,51.2,30.04,North,-999,-999.0,0.0,33,0.00,,---,0.00,VWS V14.01,2013-05-26 19:00:00,
2013-05-26 15:06:00,83.0,49.3,30.04,North,-999,-999.0,0.0,31,0.00,,---,0.00,VWS V14.01,2013-05-26 19:06:00,
2013-05-26 15:11:00,84.1,50.2,30.03,North,-999,-999.0,0.0,31,0.00,,---,0.00,VWS V14.01,2013-05-26 19:11:00,
2013-05-26 15:16:00,83.9,50.9,30.03,North,-999,-999.0,0.0,32,0.00,,---,0.00,VWS V14.01,2013-05-26 19:16:00,
2013-05-26 15:21:00,85.0,51.0,30.03,North,-999,-999.0,0.0,31,0.00,,---,0.00,VWS V14.01,2013-05-26 19:21:00,
2013-05-26 15:26:00,84.8,50.8,30.03,North,-999,-999.0,0.0,31,0.00,,---,0.00,VWS V14.01,2013-05-26 19:26:00,
2013-05-26 15:31:00,83.9,50.1,30.02,North,-999,-999.0,0.0,31,0.00,,---,0.00,VWS V14.01,2013-05-26 19:31:00,
2013-05-26 15:36:00,85.9,51.8,30.02,North,-999,-999.0,0.0,31,0.00,,---,0.00,VWS V14.01,2013-05-26 19:36:00,
2013-05-26 15:41:00,85.5,49.7,30.02,North,-999,-999.0,0.0,29,0.00,,---,0.00,VWS V14.01,2013-05-26 19:41:00,
2013-05-26 15:46:00,84.8,50.0,30.02,North,-999,-999.0,0.0,30,0.00,,---,0.00,VWS V14.01,2013-05-26 19:46:00,
2013-05-26 15:51:00,86.6,49.7,30.01,North,-999,-999.0,0.0,28,0.00,,---,0.00,VWS V14.01,2013-05-26 19:51:00,
2013-05-26 15:56:00,85.3,49.5,30.02,North,-999,-999.0,0.0,29,0.00,,---,0.00,VWS V14.01,2013-05-26 19:56:00,
2013-05-26 16:02:00,85.0,50.1,30.01,North,-999,-999.0,0.0,30,0.00,,---,0.00,VWS V14.01,2013-05-26 20:02:00,
2013-05-26 16:07:00,85.9,50.0,30.01,North,-999,-999.0,0.0,29,0.00,,---,0.00,VWS V14.01,2013-05-26 20:07:00,
2013-05-26 16:12:00,85.7,49.8,30.01,North,-999,-999.0,0.0,29,0.00,,---,0.00,VWS V14.01,2013-05-26 20:12:00,
2013-05-26 16:17:00,86.6,51.5,30.01,North,-999,-999.0,0.0,30,0.00,,---,0.00,VWS V14.01,2013-05-26 20:17:00,
2013-05-26 16:22:00,87.3,52.1,30.01,North,-999,-999.0,0.0,30,0.00,,---,0.00,VWS V14.01,2013-05-26 20:22:00,
2013-05-26 16:27:00,88.2,52.0,30.01,North,-999,-999.0,0.0,29,0.00,,---,0.00,VWS V14.01,2013-05-26 20:27:00,
2013-05-26 16:32:00,88.9,52.6,30.01,North,-999,-999.0,0.0,29,0.00,,---,0.00,VWS V14.01,2013-05-26 20:32:00,
2013-05-26 16:37:00,88.4,52.1,30.01,North,-999,-999.0,0.0,29,0.00,,---,0.00,VWS V14.01,2013-05-26 20:37:00,
2013-05-26 16:42:00,88.7,51.4,30.00,North,-999,-999.0,0.0,28,0.00,,---,0.00,VWS V14.01,2013-05-26 20:42:00,
2013-05-26 16:47:00,87.3,48.3,30.00,North,-999,-999.0,0.0,26,0.00,,---,0.00,VWS V14.01,2013-05-26 20:47:00,
2013-05-26 16:52:00,87.1,51.0,30.00,North,-999,-999.0,0.0,29,0.00,,---,0.00,VWS V14.01,2013-05-26 20:52:00,
2013-05-26 16:57:00,85.5,50.6,30.00,North,-999,-999.0,0.0,30,0.00,,---,0.00,VWS V14.01,2013-05-26 20:57:00,
2013-05-26 17:03:00,86.6,51.5,30.00,North,-999,-999.0,0.0,30,0.00,,---,0.00,VWS V14.01,2013-05-26 21:03:00,
2013-05-26 17:08:00,87.1,51.9,30.00,North,-999,-999.0,0.0,30,0.00,,---,0.00,VWS V14.01,2013-05-26 21:08:00,
2013-05-26 17:13:00,87.5,51.4,30.00,North,-999,-999.0,0.0,29,0.00,,---,0.00,VWS V14.01,2013-05-26 21:13:00,
2013-05-26 17:18:00,85.7,49.8,30.00,North,-999,-999.0,0.0,29,0.00,,---,0.00,VWS V14.01,2013-05-26 21:18:00,
2013-05-26 17:23:00,85.9,50.9,30.00,North,-999,-999.0,0.0,30,0.00,,---,0.00,VWS V14.01,2013-05-26 21:23:00,
2013-05-26 17:28:00,85.0,50.1,30.00,North,-999,-999.0,0.0,30,0.00,,---,0.00,VWS V14.01,2013-05-26 21:28:00,
2013-05-26 17:33:00,85.3,50.4,30.00,North,-999,-999.0,0.0,30,0.00,,---,0.00,VWS V14.01,2013-05-26 21:33:00,
2013-05-26 17:38:00,84.6,51.5,30.00,North,-999,-999.0,0.0,32,0.00,,---,0.00,VWS V14.01,2013-05-26 21:38:00,
2013-05-26 17:43:00,84.6,51.5,30.00,North,-999,-999.0,0.0,32,0.00,,---,0.00,VWS V14.01,2013-05-26 21:43:00,
2013-05-26 17:48:00,83.0,50.1,30.00,North,-999,-999.0,0.0,32,0.00,,---,0.00,VWS V14.01,2013-05-26 21:48:00,
2013-05-26 17:53:00,83.2,51.1,30.00,North,-999,-999.0,0.0,33,0.00,,---,0.00,VWS V14.01,2013-05-26 21:53:00,
2013-05-26 17:58:00,84.6,52.4,30.00,North,-999,-999.0,0.0,33,0.00,,---,0.00,VWS V14.01,2013-05-26 21:58:00,
2013-05-26 18:03:00,85.9,51.8,30.00,North,-999,-999.0,0.0,31,0.00,,---,0.00,VWS V14.01,2013-05-26 22:03:00,
2013-05-26 18:09:00,85.5,51.4,30.00,North,-999,-999.0,0.0,31,0.00,,---,0.00,VWS V14.01,2013-05-26 22:09:00,
2013-05-26 18:14:00,84.6,51.5,30.00,North,-999,-999.0,0.0,32,0.00,,---,0.00,VWS V14.01,2013-05-26 22:14:00,
2013-05-26 18:19:00,83.3,50.4,29.99,North,-999,-999.0,0.0,32,0.00,,---,0.00,VWS V14.01,2013-05-26 22:19:00,
2013-05-26 18:24:00,82.4,51.2,29.99,North,-999,-999.0,0.0,34,0.00,,---,0.00,VWS V14.01,2013-05-26 22:24:00,
2013-05-26 18:29:00,81.9,50.0,29.99,North,-999,-999.0,0.0,33,0.00,,---,0.00,VWS V14.01,2013-05-26 22:29:00,
2013-05-26 18:34:00,81.0,50.8,29.99,North,-999,-999.0,0.0,35,0.00,,---,0.00,VWS V14.01,2013-05-26 22:34:00,
2013-05-26 18:39:00,80.5,51.9,29.99,North,-999,-999.0,0.0,37,0.00,,---,0.00,VWS V14.01,2013-05-26 22:39:00,
2013-05-26 18:44:00,81.4,52.7,29.99,North,-999,-999.0,0.0,37,0.00,,---,0.00,VWS V14.01,2013-05-26 22:44:00,
2013-05-26 18:49:00,81.0,50.8,29.98,North,-999,-999.0,0.0,35,0.00,,---,0.00,VWS V14.01,2013-05-26 22:49:00,
2013-05-26 18:54:00,81.7,52.9,29.99,North,-999,-999.0,0.0,37,0.00,,---,0.00,VWS V14.01,2013-05-26 22:54:00,
2013-05-26 18:59:00,82.6,53.0,29.99,North,-999,-999.0,0.0,36,0.00,,---,0.00,VWS V14.01,2013-05-26 22:59:00,
2013-05-26 19:05:00,82.8,51.6,29.99,North,-999,-999.0,0.0,34,0.00,,---,0.00,VWS V14.01,2013-05-26 23:05:00,
2013-05-26 19:10:00,82.4,52.0,29.99,North,-999,-999.0,0.0,35,0.00,,---,0.00,VWS V14.01,2013-05-26 23:10:00,
2013-05-26 19:15:00,82.1,53.3,29.99,North,-999,-999.0,0.0,37,0.00,,---,0.00,VWS V14.01,2013-05-26 23:15:00,
2013-05-26 19:20:00,81.4,52.7,29.99,North,-999,-999.0,0.0,37,0.00,,---,0.00,VWS V14.01,2013-05-26 23:20:00,
2013-05-26 19:25:00,81.2,53.2,29.99,North,-999,-999.0,0.0,38,0.00,,---,0.00,VWS V14.01,2013-05-26 23:25:00,
2013-05-26 19:30:00,80.5,52.6,29.99,North,-999,-999.0,0.0,38,0.00,,---,0.00,VWS V14.01,2013-05-26 23:30:00,
2013-05-26 19:35:00,79.6,53.2,29.99,North,-999,-999.0,0.0,40,0.00,,---,0.00,VWS V14.01,2013-05-26 23:35:00,
2013-05-26 19:40:00,79.2,52.8,29.99,North,-999,-999.0,0.0,40,0.00,,---,0.00,VWS V14.01,2013-05-26 23:40:00,
2013-05-26 19:45:00,78.7,53.0,29.99,North,-999,-999.0,0.0,41,0.00,,---,0.00,VWS V14.01,2013-05-26 23:45:00,
2013-05-26 19:50:00,77.8,53.5,29.99,North,-999,-999.0,0.0,43,0.00,,---,0.00,VWS V14.01,2013-05-26 23:50:00,
2013-05-26 19:55:00,77.0,53.4,29.99,North,-999,-999.0,0.0,44,0.00,,---,0.00,VWS V14.01,2013-05-26 23:55:00,
2013-05-26 20:00:00,76.3,53.4,29.99,North,-999,-999.0,0.0,45,0.00,,---,0.00,VWS V14.01,2013-05-27 00:00:00,
2013-05-26 20:06:00,75.4,53.2,29.99,North,-999,-999.0,0.0,46,0.00,,---,0.00,VWS V14.01,2013-05-27 00:06:00,
2013-05-26 20:11:00,74.7,53.2,29.99,North,-999,-999.0,0.0,47,0.00,,---,0.00,VWS V14.01,2013-05-27 00:11:00,
2013-05-26 20:16:00,73.6,52.7,29.99,North,-999,-999.0,0.0,48,0.00,,---,0.00,VWS V14.01,2013-05-27 00:16:00,
2013-05-26 20:21:00,72.5,52.3,29.99,North,-999,-999.0,0.0,49,0.00,,---,0.00,VWS V14.01,2013-05-27 00:21:00,
2013-05-26 20:26:00,71.8,52.7,29.99,North,-999,-999.0,0.0,51,0.00,,---,0.00,VWS V14.01,2013-05-27 00:26:00,
2013-05-26 20:31:00,71.1,52.6,29.99,North,-999,-999.0,0.0,52,0.00,,---,0.00,VWS V14.01,2013-05-27 00:31:00,
2013-05-26 20:36:00,70.6,52.7,29.99,North,-999,-999.0,0.0,53,0.00,,---,0.00,VWS V14.01,2013-05-27 00:36:00,
2013-05-26 20:41:00,69.8,51.9,30.00,North,-999,-999.0,0.0,53,0.00,,---,0.00,VWS V14.01,2013-05-27 00:41:00,
2013-05-26 20:46:00,69.3,51.5,29.99,North,-999,-999.0,0.0,53,0.00,,---,0.00,VWS V14.01,2013-05-27 00:46:00,
2013-05-26 20:51:00,68.8,51.5,30.00,North,-999,-999.0,0.0,54,0.00,,---,0.00,VWS V14.01,2013-05-27 00:51:00,
2013-05-26 20:56:00,68.4,51.6,30.00,North,-999,-999.0,0.0,55,0.00,,---,0.00,VWS V14.01,2013-05-27 00:56:00,
2013-05-26 21:01:00,68.0,51.7,30.00,North,-999,-999.0,0.0,56,0.00,,---,0.00,VWS V14.01,2013-05-27 01:01:00,
2013-05-26 21:07:00,67.3,52.0,30.00,North,-999,-999.0,0.0,58,0.00,,---,0.00,VWS V14.01,2013-05-27 01:07:00,
2013-05-26 21:12:00,67.0,52.2,30.00,North,-999,-999.0,0.0,59,0.00,,---,0.00,VWS V14.01,2013-05-27 01:12:00,
2013-05-26 21:17:00,66.2,51.5,30.00,North,-999,-999.0,0.0,59,0.00,,---,0.00,VWS V14.01,2013-05-27 01:17:00,
2013-05-26 21:22:00,65.7,51.5,30.00,North,-999,-999.0,0.0,60,0.00,,---,0.00,VWS V14.01,2013-05-27 01:22:00,
2013-05-26 21:27:00,65.5,51.7,30.00,North,-999,-999.0,0.0,61,0.00,,---,0.00,VWS V14.01,2013-05-27 01:27:00,
2013-05-26 21:32:00,65.2,51.9,30.00,North,-999,-999.0,0.0,62,0.00,,---,0.00,VWS V14.01,2013-05-27 01:32:00,
2013-05-26 21:37:00,64.8,51.9,30.00,North,-999,-999.0,0.0,63,0.00,,---,0.00,VWS V14.01,2013-05-27 01:37:00,
2013-05-26 21:42:00,64.4,52.0,30.00,North,-999,-999.0,0.0,64,0.00,,---,0.00,VWS V14.01,2013-05-27 01:42:00,
2013-05-26 21:47:00,64.1,52.1,30.00,North,-999,-999.0,0.0,65,0.00,,---,0.00,VWS V14.01,2013-05-27 01:47:00,
2013-05-26 21:52:00,63.7,51.7,30.01,North,-999,-999.0,0.0,65,0.00,,---,0.00,VWS V14.01,2013-05-27 01:52:00,
2013-05-26 21:57:00,63.5,52.0,30.01,North,-999,-999.0,0.0,66,0.00,,---,0.00,VWS V14.01,2013-05-27 01:57:00,
2013-05-26 22:03:00,63.2,51.7,30.01,North,-999,-999.0,0.0,66,0.00,,---,0.00,VWS V14.01,2013-05-27 02:03:00,
2013-05-26 22:08:00,63.0,51.9,30.01,North,-999,-999.0,0.0,67,0.00,,---,0.00,VWS V14.01,2013-05-27 02:08:00,
2013-05-26 22:13:00,62.6,51.9,30.01,North,-999,-999.0,0.0,68,0.00,,---,0.00,VWS V14.01,2013-05-27 02:13:00,
2013-05-26 22:18:00,62.3,52.0,30.02,North,-999,-999.0,0.0,69,0.00,,---,0.00,VWS V14.01,2013-05-27 02:18:00,
2013-05-26 22:23:00,61.9,51.6,30.02,North,-999,-999.0,0.0,69,0.00,,---,0.00,VWS V14.01,2013-05-27 02:23:00,
2013-05-26 22:28:00,61.7,51.4,30.02,North,-999,-999.0,0.0,69,0.00,,---,0.00,VWS V14.01,2013-05-27 02:28:00,
2013-05-26 22:33:00,61.6,51.3,30.02,North,-999,-999.0,0.0,69,0.00,,---,0.00,VWS V14.01,2013-05-27 02:33:00,
2013-05-26 22:38:00,61.4,51.5,30.02,North,-999,-999.0,0.0,70,0.00,,---,0.00,VWS V14.01,2013-05-27 02:38:00,
2013-05-26 22:43:00,61.2,51.3,30.02,North,-999,-999.0,0.0,70,0.00,,---,0.00,VWS V14.01,2013-05-27 02:43:00,
2013-05-26 22:48:00,60.8,51.3,30.02,North,-999,-999.0,0.0,71,0.00,,---,0.00,VWS V14.01,2013-05-27 02:48:00,
2013-05-26 22:53:00,60.7,51.2,30.03,North,-999,-999.0,0.0,71,0.00,,---,0.00,VWS V14.01,2013-05-27 02:53:00,
2013-05-26 22:58:00,60.7,51.2,30.03,North,-999,-999.0,0.0,71,0.00,,---,0.00,VWS V14.01,2013-05-27 02:58:00,
2013-05-26 23:03:00,60.5,51.4,30.03,North,-999,-999.0,0.0,72,0.00,,---,0.00,VWS V14.01,2013-05-27 03:03:00,
2013-05-26 23:09:00,60.1,51.1,30.02,North,-999,-999.0,0.0,72,0.00,,---,0.00,VWS V14.01,2013-05-27 03:09:00,
2013-05-26 23:14:00,60.1,51.4,30.02,North,-999,-999.0,0.0,73,0.00,,---,0.00,VWS V14.01,2013-05-27 03:14:00,
2013-05-26 23:19:00,59.9,51.2,30.02,North,-999,-999.0,0.0,73,0.00,,---,0.00,VWS V14.01,2013-05-27 03:19:00,
2013-05-26 23:24:00,59.8,51.1,30.02,North,-999,-999.0,0.0,73,0.00,,---,0.00,VWS V14.01,2013-05-27 03:24:00,
2013-05-26 23:29:00,59.8,51.1,30.02,North,-999,-999.0,0.0,73,0.00,,---,0.00,VWS V14.01,2013-05-27 03:29:00,
2013-05-26 23:34:00,59.4,51.1,30.02,North,-999,-999.0,0.0,74,0.00,,---,0.00,VWS V14.01,2013-05-27 03:34:00,
2013-05-26 23:39:00,59.4,51.5,30.02,North,-999,-999.0,0.0,75,0.00,,---,0.00,VWS V14.01,2013-05-27 03:39:00,
2013-05-26 23:44:00,59.0,51.5,30.02,North,-999,-999.0,0.0,76,0.00,,---,0.00,VWS V14.01,2013-05-27 03:44:00,
2013-05-26 23:49:00,58.9,51.4,30.02,North,-999,-999.0,0.0,76,0.00,,---,0.00,VWS V14.01,2013-05-27 03:49:00,
2013-05-26 23:54:00,58.7,51.2,30.02,North,-999,-999.0,0.0,76,0.00,,---,0.00,VWS V14.01,2013-05-27 03:54:00,
2013-05-26 23:59:00,58.7,51.2,30.02,North,-999,-999.0,0.0,76,0.00,,---,0.00,VWS V14.01,2013-05-27 03:59:00,